Location: Zagreb
(45.8000°N, 16.0000°E)
Time: 11:38:44
(UTC+01:00)

Courier 1B - Visible Passes

Search period start: 19 January 2022 00:00
Search period end: 29 January 2022 00:00
Orbit: 962 x 1209 km, 28.3° (Epoch: 19 January)

Date Brightness Start Highest point End Pass type
(mag) Time Alt. Az. Time Alt. Az. Time Alt. Az.
22 Jan 10.0 20:24:56 10° SSW 20:25:40 12° SSW 20:25:40 12° SSW visible
23 Jan 9.7 19:32:06 10° S 19:35:20 14° SSE 19:35:20 14° SSE visible
24 Jan 9.8 18:40:00 10° S 18:42:11 11° SSE 18:44:22 10° SE visible
24 Jan 9.9 20:29:53 10° SW 20:31:53 15° SSW 20:31:53 15° SSW visible
25 Jan 9.5 19:36:35 10° SSW 19:41:28 18° SSE 19:41:31 18° SSE visible
26 Jan 9.7 18:43:34 10° SSW 18:47:52 16° SSE 18:51:08 12° SE visible
26 Jan 9.8 20:35:23 10° SW 20:38:01 17° SSW 20:38:01 17° SSW visible
27 Jan 9.9 17:50:59 10° S 17:54:17 13° SSE 17:57:37 10° SE visible
27 Jan 9.4 19:41:51 10° SW 19:47:14 20° S 19:47:38 20° S visible
28 Jan 9.6 18:48:30 10° SSW 18:53:36 19° S 18:57:15 14° SE visible
28 Jan 9.8 20:41:18 10° SW 20:44:09 17° SSW 20:44:09 17° SSW visible
